[[{"header":{"parameterUnit":"m.s-1","parameterCategory":1,"la1":30.2991,"la2":30.254,"lo1":-89.0895,"lo2":-89.0444,"dy":0.0017,"dx":0.0017,"nx":28,"ny":28,"refTime":"2024-08-04T03:00:00:Z","depth":0,"parameterNumber":2,"parameterNumberName":"U-component_of_WINDS"},"data":[0,0,0,0,0,0,0,0,0,0,0,0,0,0,0,0,0,0,0,0,0,0,0,0,0,0,0,0,0,0,0,0,0,0,0,0,0,0,0,0,0,0,0,0,0,0,0,0,0,0,0,0,0,0,0,0,0,0,-1.467,-1.467,0,-1.4684,-1.4684,-1.4685,-1.4632,-1.463,-1.4628,-1.4627,-1.4645,-1.4647,-1.4649,0,0,0,0,0,0,0,0,0,0,0,0,0,-1.4599,-1.46,-1.467,-1.467,-1.467,-1.4684,-1.4684,-1.4685,-1.4632,-1.463,-1.4628,-1.4626,-1.4644,-1.4646,-1.4649,0,0,0,0,0,0,0,0,0,0,0,0,0,-1.4623,-1.4601,-1.467,-1.4645,-1.4643,-1.4684,-1.4684,-1.4685,-1.4632,-1.463,-1.4627,-1.4625,-1.4643,-1.4646,-1.4649,-1.4715,0,0,-1.4658,-1.4659,0,0,0,0,0,0,0,0,-1.4622,-1.4626,-1.4649,-1.4647,-1.4645,-1.4654,-1.4666,-1.4695,-1.4633,-1.4637,-1.4627,-1.4624,-1.465,-1.4652,-1.466,-1.4716,-1.4717,-1.4658,-1.466,-1.4661,-1.4662,0,0,0,0,0,0,0,-1.462,-1.4625,-1.4676,-1.4649,-1.4647,-1.4634,-1.4635,-1.4671,-1.4657,-1.4636,-1.4632,-1.4634,-1.4648,-1.4657,-1.466,-1.4717,-1.4658,-1.4661,-1.4663,-1.4664,-1.4828,-1.483,0,0,0,0,0,0,-1.4621,-1.4624,-1.4675,-1.4676,-1.4627,-1.4638,-1.4639,-1.4653,-1.4656,-1.4654,-1.4637,-1.4632,-1.4654,-1.4657,-1.4661,-1.4739,-1.4661,-1.4664,-1.4666,-1.4825,-1.4828,-1.4831,0,0,0,0,0,0,-1.462,-1.4626,-1.4675,-1.4649,-1.4654,-1.4641,-1.4658,-1.4655,-1.4664,-1.4656,-1.4654,-1.4648,-1.4652,-1.4656,-1.4702,-1.4738,-1.4665,-1.4668,-1.4822,-1.4826,-1.483,-1.4895,0,0,0,0,0,0,-1.4618,-1.4626,-1.4651,-1.465,-1.4656,-1.4715,-1.4661,-1.4657,-1.4669,-1.4663,-1.4667,-1.4665,-1.465,-1.4698,-1.4705,-1.4741,-1.467,-1.4819,-1.4824,-1.4828,-1.4889,-1.4901,-1.491,0,0,0,0,0,-1.4616,-1.4669,-1.4652,-1.4659,-1.4686,-1.4717,-1.4721,-1.4702,-1.4672,-1.4697,-1.4692,-1.4665,-1.4733,-1.4703,-1.471,-1.4748,-1.4816,-1.4822,-1.4828,-1.4885,-1.4898,-1.491,0,0,0,0,0,0,-1.4676,-1.4669,-1.465,-1.4704,-1.4712,-1.4708,-1.4739,-1.4717,-1.4733,-1.4728,-1.4704,-1.4705,-1.4755,-1.4756,-1.4722,-1.4812,-1.4769,-1.4777,-1.481,-1.4823,-1.4833,-1.4833,-1.4673,0,0,0,0,0,-1.4695,-1.4721,-1.4713,-1.4762,-1.4766,-1.4752,-1.4765,-1.475,-1.4757,-1.476,-1.4758,-1.4767,-1.479,-1.4806,-1.4827,-1.4888,-1.4889,-1.4918,-1.4928,-1.4937,-1.4945,-1.4978,-1.4991,-1.485,-1.485,-1.485,0,0,-1.4737,-1.4735,-1.4753,-1.4774,-1.4778,-1.4806,-1.4755,-1.4787,-1.4807,-1.4765,-1.4808,-1.4807,-1.4815,-1.4869,-1.4892,-1.4871,-1.4983,-1.4944,-1.4951,-1.4954,-1.4985,-1.4998,-1.501,-1.4854,-1.4853,-1.4853,0,0,-1.4826,-1.4827,-1.4868,-1.4872,-1.4878,-1.4868,-1.4878,-1.4878,-1.4875,-1.4917,-1.4886,-1.491,-1.4951,-1.4958,-1.4967,-1.5057,-1.5034,-1.5065,-1.512,-1.5152,-1.5163,-1.5173,-1.5207,-1.5219,-1.5072,-1.5072,-1.5072,0,-1.4876,-1.4916,-1.4892,-1.4926,-1.4936,-1.4897,-1.4939,-1.4945,-1.4958,-1.4967,-1.4942,-1.4992,-1.4994,-1.5049,-1.5071,-1.5079,-1.5091,-1.5065,-1.5163,-1.5173,-1.5182,-1.5213,-1.5226,-1.5076,-1.5075,-1.5075,-1.5075,0,-1.4978,-1.5006,-1.5039,-1.5052,-1.5065,-1.5103,-1.5086,-1.5102,-1.5085,-1.5078,-1.5122,-1.5123,-1.5144,-1.5155,-1.5139,-1.5208,-1.5195,-1.5167,-1.5124,-1.5199,-1.5229,-1.5241,-1.5081,-1.508,-1.5079,-1.5078,0,0,-1.5109,-1.5106,-1.5119,-1.5124,-1.5127,-1.5149,-1.5184,-1.5203,-1.5219,-1.5228,-1.5259,-1.5293,-1.5267,-1.5277,-1.5261,-1.529,-1.5363,-1.5258,-1.5258,-1.5279,-1.544,-1.5463,-1.5477,-1.5346,-1.5348,-1.535,-1.544,0,-1.5197,-1.5258,-1.5237,-1.5299,-1.5325,-1.5288,-1.5319,-1.5325,-1.5318,-1.534,-1.5333,-1.5358,-1.5321,-1.5327,-1.5353,-1.5348,-1.5395,-1.5341,-1.5375,-1.5377,-1.5377,-1.5492,-1.5516,-1.5601,-1.5451,-1.5453,-1.5454,0,-1.531,-1.5323,-1.5387,-1.5386,-1.5396,-1.5424,-1.544,-1.546,-1.5466,-1.5459,-1.547,-1.5448,-1.5484,-1.5439,-1.5488,-1.5452,-1.5464,-1.5464,-1.5467,-1.5471,-1.5422,-1.5502,-1.5628,-1.5642,-1.5472,-1.5471,-1.5469,0,-1.54,-1.5434,-1.5477,-1.5482,-1.5481,-1.5502,-1.5502,-1.5505,-1.5518,-1.5532,-1.554,-1.5558,-1.5568,-1.5583,-1.5567,-1.5535,-1.5619,-1.5573,-1.5616,-1.5617,-1.5637,-1.5637,-1.577,-1.5642,-1.5642,-1.5642,-1.5641,0,-1.5503,-1.5544,-1.5518,-1.5545,-1.559,-1.5565,-1.561,-1.5607,-1.561,-1.5636,-1.5604,-1.5629,-1.5605,-1.5628,-1.5615,-1.5659,-1.5663,-1.566,-1.5656,-1.5664,-1.5665,-1.5673,-1.5668,-1.5645,-1.5644,-1.5643,-1.5643,0,-1.5613,-1.5596,-1.5641,-1.5635,-1.5635,-1.5669,-1.5664,-1.5689,-1.5679,-1.5713,-1.5719,-1.5705,-1.573,-1.5714,-1.5741,-1.5732,-1.5789,-1.5777,-1.5788,-1.5785,-1.583,-1.5827,-1.5975,-1.5994,-1.5852,-1.5853,-1.5855,0,-1.5681,-1.5712,-1.5709,-1.5723,-1.5726,-1.575,-1.5762,-1.5738,-1.5752,-1.576,-1.5785,-1.5807,-1.5824,-1.5866,-1.5859,-1.5879,-1.5868,-1.5918,-1.5871,-1.5877,-1.5871,-1.587,-1.5873,-1.5929,-1.593,-1.5932,-1.5933,0,-1.5804,-1.5794,-1.5812,-1.5828,-1.5843,-1.5855,-1.5864,-1.5878,-1.5853,-1.5871,-1.5896,-1.5909,-1.5935,-1.5958,-1.5975,-1.5976,-1.5951,-1.5947,-1.5959,-1.5968,-1.5974,-1.5973,-1.5816,-1.5945,-1.5944,-1.5943,-1.5942,-1.5942,-1.5896,-1.5922,-1.5924,-1.5945,-1.5949,-1.5958,-1.5981,-1.5974,-1.5994,-1.6012,-1.5997,-1.6027,-1.6031,-1.605,-1.6055,-1.6078,-1.6058,-1.6074,-1.6079,-1.6084,-1.6091,-1.5968,-1.6081,-1.6081,-1.608,-1.608,-1.608,0,-1.6019,-1.6017,-1.6037,-1.605,-1.6068,-1.604,-1.6048,-1.6065,-1.6092,-1.6097,-1.6114,-1.6143,-1.6164,-1.6158,-1.6178,-1.6198,-1.6187,-1.6204,-1.6204,-1.6205,-1.6107,-1.6096,-1.6213,-1.6213,-1.6213,-1.6213,-1.6213,-1.6212,-1.6085,-1.6127,-1.6117,-1.6161,-1.6159,-1.6188,-1.6195,-1.6203,-1.6207,-1.6241,-1.6258,-1.6253,-1.6254,-1.6273,-1.6292,-1.629,-1.6299,-1.6321,-1.6315,-1.6224,-1.6211,-1.6199,-1.6189,-1.6323,-1.6323,-1.6411,-1.6411,-1.6412]},{"header":{"parameterUnit":"m.s-1","parameterCategory":1,"la1":30.2991,"la2":30.254,"lo1":-89.0895,"lo2":-89.0444,"dy":0.0017,"dx":0.0017,"nx":28,"ny":28,"refTime":"2024-08-04T03:00:00:Z","depth":0,"parameterNumber":3,"parameterNumberName":"V-component_of_WINDS"},"data":[0,0,0,0,0,0,0,0,0,0,0,0,0,0,0,0,0,0,0,0,0,0,0,0,0,0,0,0,0,0,0,0,0,0,0,0,0,0,0,0,0,0,0,0,0,0,0,0,0,0,0,0,0,0,0,0,0,0,2.2666,2.2664,0,2.2491,2.2489,2.2487,2.2429,2.243,2.2431,2.2432,2.2235,2.2229,2.2223,0,0,0,0,0,0,0,0,0,0,0,0,0,2.2935,2.2931,2.2666,2.2664,2.2662,2.2491,2.2489,2.2486,2.2429,2.243,2.2431,2.2432,2.2237,2.223,2.2223,0,0,0,0,0,0,0,0,0,0,0,0,0,2.2795,2.2929,2.2666,2.2613,2.2607,2.2492,2.2488,2.2485,2.2429,2.243,2.2431,2.2433,2.224,2.2231,2.2222,2.2142,0,0,2.2194,2.2191,0,0,0,0,0,0,0,0,2.2803,2.2785,2.2623,2.2617,2.2609,2.2484,2.2511,2.237,2.2429,2.2496,2.2432,2.2433,2.2316,2.2301,2.2264,2.2133,2.2124,2.2194,2.2188,2.2184,2.2182,0,0,0,0,0,0,0,2.2812,2.2792,2.2596,2.2621,2.2612,2.2593,2.2574,2.2484,2.24,2.249,2.2486,2.2467,2.2312,2.2273,2.2259,2.2121,2.2194,2.2186,2.218,2.2177,2.1912,2.191,0,0,0,0,0,0,2.2833,2.28,2.2602,2.2591,2.2711,2.2587,2.2566,2.2522,2.2401,2.2385,2.2466,2.2465,2.2288,2.227,2.2252,2.2148,2.2184,2.2176,2.2171,2.1913,2.1911,2.1909,0,0,0,0,0,0,2.2839,2.2816,2.2609,2.2694,2.2667,2.2581,2.2532,2.2518,2.248,2.2383,2.2366,2.2443,2.2288,2.2265,2.217,2.2141,2.2172,2.2164,2.1915,2.1913,2.191,2.1941,0,0,0,0,0,0,2.2848,2.2819,2.2791,2.2695,2.2662,2.2535,2.2531,2.2514,2.2466,2.2463,2.2357,2.234,2.2287,2.2184,2.2161,2.2129,2.2157,2.1917,2.1914,2.1911,2.1943,2.194,2.1938,0,0,0,0,0,2.2857,2.2804,2.279,2.2767,2.2627,2.2533,2.2514,2.2459,2.2464,2.2433,2.2371,2.2344,2.2149,2.2175,2.2149,2.2113,2.1919,2.1915,2.1911,2.1943,2.1941,2.1939,0,0,0,0,0,0,2.2893,2.279,2.2774,2.2689,2.2621,2.2524,2.2483,2.2459,2.2383,2.2383,2.2313,2.2289,2.2199,2.2146,2.2178,2.2028,2.2032,2.2023,2.2065,2.2062,2.206,2.2072,2.2149,0,0,0,0,0,2.2893,2.2831,2.2742,2.2675,2.2642,2.2569,2.2526,2.249,2.2415,2.2384,2.2315,2.2238,2.2159,2.2108,2.203,2.1936,2.1909,2.1898,2.1896,2.1895,2.1886,2.1829,2.1822,2.1897,2.1897,2.1897,0,0,2.2888,2.2824,2.2788,2.2681,2.2624,2.2556,2.2545,2.2473,2.242,2.2371,2.2278,2.2225,2.2134,2.2039,2.1994,2.1993,2.1861,2.189,2.189,2.1882,2.1825,2.1818,2.1811,2.1895,2.1895,2.1896,0,0,2.2845,2.2793,2.273,2.2675,2.2591,2.2543,2.2528,2.2435,2.2399,2.2307,2.2268,2.2201,2.2068,2.2004,2.1954,2.1888,2.1858,2.1864,2.1851,2.1797,2.179,2.1785,2.1757,2.1749,2.1857,2.1857,2.1857,0,2.2848,2.275,2.27,2.2631,2.2583,2.2541,2.2474,2.2421,2.2314,2.2279,2.2281,2.2113,2.2048,2.1937,2.1921,2.1883,2.1859,2.1874,2.1797,2.179,2.1784,2.1757,2.1747,2.1858,2.1858,2.1858,2.1857,0,2.2756,2.2688,2.2646,2.255,2.2497,2.243,2.2365,2.2316,2.2285,2.2235,2.2139,2.2062,2.1967,2.1938,2.1904,2.182,2.1822,2.1812,2.1813,2.1779,2.1752,2.1741,2.1859,2.1859,2.1859,2.1858,0,0,2.2727,2.2607,2.2592,2.2547,2.2452,2.2395,2.2324,2.2237,2.2195,2.2122,2.2057,2.1946,2.1936,2.188,2.1839,2.1792,2.174,2.1786,2.1782,2.1777,2.1637,2.1643,2.1632,2.1722,2.1719,2.1718,2.1643,0,2.2668,2.2546,2.2499,2.2396,2.233,2.229,2.2227,2.2159,2.2111,2.2043,2.1987,2.1909,2.1904,2.1869,2.1821,2.1757,2.171,2.1762,2.1654,2.1651,2.1675,2.1619,2.1624,2.1558,2.1633,2.1631,2.163,0,2.2583,2.2516,2.2408,2.2321,2.2291,2.2237,2.2152,2.209,2.201,2.1978,2.1917,2.1879,2.1797,2.1808,2.1691,2.1727,2.168,2.1642,2.1638,2.1622,2.1635,2.1597,2.1536,2.1525,2.1613,2.1615,2.1616,0,2.2569,2.2451,2.2371,2.2334,2.2231,2.2193,2.2147,2.207,2.202,2.1944,2.191,2.1824,2.1775,2.1707,2.1645,2.166,2.1533,2.1539,2.1498,2.15,2.1469,2.1471,2.1396,2.1447,2.1447,2.1447,2.1447,0,2.2506,2.2441,2.2363,2.2313,2.2237,2.2183,2.2107,2.2057,2.1989,2.1924,2.1884,2.1823,2.1747,2.1675,2.1626,2.1534,2.1513,2.148,2.1467,2.1482,2.1486,2.1447,2.1448,2.1444,2.1445,2.1445,2.1446,0,2.2476,2.2422,2.2331,2.2244,2.222,2.2167,2.2088,2.2035,2.1987,2.1905,2.1883,2.1804,2.1717,2.165,2.1535,2.1502,2.1404,2.1392,2.1432,2.1425,2.1386,2.1389,2.128,2.126,2.1329,2.1328,2.1328,0,2.2438,2.2387,2.2295,2.2252,2.2209,2.2139,2.2089,2.2033,2.1981,2.1888,2.1844,2.1757,2.1682,2.1544,2.1472,2.1384,2.1366,2.1334,2.1352,2.1368,2.136,2.1363,2.1355,2.133,2.133,2.133,2.1329,0,2.2374,2.235,2.2284,2.2207,2.215,2.2086,2.202,2.1985,2.1916,2.1859,2.1773,2.1716,2.1602,2.1512,2.1417,2.1363,2.1332,2.1326,2.131,2.1322,2.1346,2.1329,2.1421,2.1327,2.1327,2.1327,2.1327,2.1327,2.2335,2.2288,2.2216,2.2142,2.2088,2.2028,2.1974,2.192,2.1849,2.1756,2.1725,2.1635,2.1554,2.1424,2.1369,2.1294,2.1292,2.1272,2.1265,2.126,2.1259,2.1363,2.1276,2.1276,2.1276,2.1276,2.1276,0,2.2266,2.2219,2.2152,2.2064,2.2005,2.1989,2.1915,2.1864,2.1788,2.1718,2.1648,2.1546,2.146,2.1383,2.1292,2.1246,2.1229,2.1223,2.1223,2.121,2.1268,2.1288,2.1238,2.1238,2.1238,2.1238,2.1238,2.1238,2.2223,2.2141,2.2109,2.1998,2.195,2.1866,2.1824,2.1766,2.171,2.1602,2.1532,2.1485,2.141,2.1313,2.1231,2.121,2.1176,2.1173,2.1148,2.1202,2.1206,2.1211,2.1229,2.1167,2.1167,2.1096,2.1095,2.1094]}]]